Wind_Speed
126 133 124 127 132 129 123 118 113 110 108 106 102 99 93 93 94 91 88 85 80 76 76 76 74 70 67 69 72 74 78 79 79 81 85 83 83 84 81 77 75 73 67 53
128 124 124 129 130 129 128 127 117 112 110 105 100 95 90 87 82 82 81 82 79 77 73 70 68 71 71 71 77 78 79 78 81 82 81 78 78 76 74 74 71 63 52 50
129 124 125 127 128 129 132 128 125 121 116 109 105 94 89 84 78 77 73 71 71 69 69 71 74 74 75 79 81 74 76 78 75 76 74 70 71 71 71 69 61 54 48 43
129 128 123 124 127 128 127 129 129 129 127 122 120 99 91 86 81 79 77 79 74 72 75 80 80 78 78 82 78 77 74 69 68 64 65 68 69 66 62 56 53 48 39 36
115 120 125 128 121 122 122 124 123 121 121 119 108 100 97 99 90 87 90 87 83 88 86 85 82 79 75 76 71 70 65 62 59 60 64 63 61 55 51 50 45 39 28 37
102 105 115 121 124 124 116 116 118 119 116 106 102 99 89 98 98 97 95 91 90 89 88 83 77 75 75 68 64 59 60 61 59 61 60 54 49 49 45 39 33 32 33 37
92 101 105 106 113 118 118 114 109 107 104 94 98 94 80 83 88 90 93 91 87 78 73 71 70 68 65 60 61 60 58 57 58 58 51 49 46 41 35 30 30 32 35 39
72 91 99 96 101 109 112 114 110 104 93 91 93 81 75 72 77 78 82 80 75 69 66 65 64 64 59 56 55 54 51 55 52 48 45 40 35 31 29 30 32 33 36 37
63 72 85 94 97 101 106 107 109 107 97 90 76 73 68 71 70 67 64 62 63 61 59 58 54 52 49 46 45 48 49 45 42 35 32 29 28 30 31 31 32 35 36 29
55 62 73 83 90 94 97 102 105 102 98 87 74 68 59 63 60 55 50 49 48 46 44 43 42 43 39 40 41 39 39 34 28 28 27 27 30 31 30 30 34 35 28 26
47 54 64 72 81 86 89 91 94 93 92 88 78 64 57 59 56 51 45 41 38 34 33 34 37 33 33 32 33 33 25 22 24 24 24 29 31 31 31 34 33 27 25 19
42 51 57 61 65 78 78 81 84 84 83 84 80 67 61 58 55 46 39 34 30 28 29 33 27 23 28 28 28 28 24 24 21 21 26 28 30 31 32 32 27 25 22 14
36 44 50 52 58 67 71 74 75 79 79 79 78 67 64 60 57 46 37 30 27 29 29 28 23 28 25 27 28 20 22 18 20 22 25 28 30 32 30 25 24 22 15 12
31 38 45 48 52 59 65 68 67 68 68 72 73 67 66 62 60 46 38 31 31 30 29 28 27 26 26 26 25 20 18 16 20 22 26 28 30 29 25 22 22 16 9 12
27 34 42 43 46 52 58 63 61 60 64 63 69 68 70 67 61 49 41 35 33 31 30 27 23 26 25 23 19 21 18 18 21 24 24 26 28 26 21 22 16 11 9 12
23 31 36 36 39 47 56 58 55 56 59 60 64 68 73 72 63 54 48 38 36 34 32 28 23 24 23 22 20 21 18 19 23 23 24 25 26 21 18 12 7 7 7 11
18 24 29 31 35 42 51 60 58 58 59 59 64 76 76 71 65 57 50 44 39 34 33 27 27 21 18 21 20 19 17 20 22 21 22 24 21 17 11 6 4 4 7 10
13 16 22 28 33 43 54 61 62 58 60 63 73 81 77 70 66 58 54 48 42 34 32 23 21 18 19 21 19 17 17 17 18 20 23 22 16 11 7 3 1 3 5 5
10 14 21 27 31 38 48 62 66 62 59 64 76 82 75 68 63 59 55 47 39 38 29 20 18 13 14 18 15 16 11 16 16 19 22 19 14 9 4 2 0 2 3 3
12 18 23 28 31 37 46 60 69 71 66 69 77 80 75 68 61 58 54 49 42 39 31 26 18 15 13 15 13 9 11 14 14 17 19 15 12 5 3 1 1 3 1 6
14 18 23 28 33 37 48 64 73 71 66 69 73 73 67 66 61 56 53 50 42 34 25 21 20 19 16 15 8 8 9 11 13 15 14 13 8 2 1 2 2 3 1 12
19 23 25 27 30 41 50 61 70 74 70 68 62 62 68 66 58 51 47 47 41 35 31 22 21 19 19 12 9 6 8 9 11 12 11 10 4 2 2 1 3 6 3 14
24 26 26 30 33 41 54 63 69 69 69 66 62 65 67 66 55 52 57 56 38 31 34 27 28 23 22 17 6 5 6 7 9 10 8 9 3 3 2 2 6 7 7 12
23 26 29 33 37 46 55 62 67 70 67 57 59 66 69 64 63 67 62 49 38 42 33 33 31 25 25 18 7 7 3 5 8 10 6 6 4 2 2 3 6 6 6 10
23 27 31 36 41 49 57 64 69 64 60 58 62 67 69 71 71 67 61 43 40 44 38 34 33 27 27 17 12 8 2 3 8 8 6 3 3 5 5 3 1 4 6 13
20 27 33 41 47 54 61 64 60 59 63 66 67 69 72 76 75 68 54 50 41 38 42 35 29 29 29 20 11 5 3 3 6 8 7 2 2 6 6 4 4 5 8 14
Wind_Direction
241 242 245 245 245 244 241 246 245 246 248 251 253 249 253 256 259 261 263 264 266 268 267 268 269 271 275 279 283 285 290 294 294 295 297 297 295 297 298 300 300 302 305 296
243 242 242 242 244 244 242 242 244 246 248 249 251 249 250 254 257 259 260 264 265 266 265 267 268 270 277 284 291 289 288 292 294 293 293 294 295 296 298 297 302 304 298 292
247 245 241 242 242 243 244 243 241 243 244 248 249 249 251 254 257 260 260 263 263 261 265 268 272 274 281 286 291 289 291 291 290 289 292 294 292 293 295 301 301 298 296 290
246 245 246 244 242 242 243 244 244 243 244 247 248 249 252 253 254 258 260 258 258 265 268 270 275 281 285 285 285 286 288 289 289 290 290 290 291 296 302 298 296 296 299 291
246 244 243 242 244 245 243 243 245 245 245 248 248 250 246 252 251 252 253 257 261 262 269 275 278 279 281 280 281 283 287 289 288 288 287 291 297 300 294 291 293 292 280 288
244 242 241 241 239 239 241 243 243 243 244 246 247 251 246 251 253 254 255 258 261 264 270 274 273 273 275 276 278 283 286 288 288 289 291 296 299 292 288 290 290 297 292 294
241 242 241 239 239 238 237 241 244 245 246 248 247 250 249 249 253 256 255 258 262 267 267 268 267 271 273 274 278 281 284 286 286 288 296 297 290 285 288 291 299 296 296 299
238 237 239 239 237 237 236 236 239 243 245 246 246 248 249 247 245 249 254 256 258 260 260 263 265 268 271 275 277 280 282 279 284 293 297 291 289 288 290 298 297 297 299 303
239 236 235 235 235 234 235 235 235 237 238 241 243 244 245 246 249 251 253 254 256 259 263 264 264 267 268 270 274 274 274 280 289 291 292 287 290 294 298 297 299 301 305 303
236 234 234 232 232 232 233 233 233 234 235 236 237 238 239 244 249 251 250 251 254 257 256 256 259 256 261 264 266 270 276 282 284 285 289 294 294 303 303 302 303 304 302 298
235 231 231 230 230 231 232 230 231 232 232 232 232 229 229 236 240 246 248 249 250 248 246 243 246 248 254 259 262 270 265 270 276 288 297 297 300 304 303 305 305 303 299 294
234 232 229 227 226 226 229 230 230 230 229 229 228 224 222 231 240 241 242 243 241 235 234 234 231 239 249 255 259 257 265 267 282 293 299 305 304 303 305 306 304 300 295 288
233 232 229 227 223 222 222 224 226 227 226 225 224 220 219 224 233 232 233 232 221 223 222 225 226 240 249 254 247 248 257 277 291 294 307 303 302 303 305 303 300 295 284 292
230 229 229 225 219 215 219 220 220 222 221 219 218 210 211 217 229 224 220 216 212 214 220 226 229 241 251 251 247 243 252 285 304 305 307 302 304 304 304 299 290 285 272 294
227 222 225 222 218 213 207 215 215 213 215 211 209 203 206 211 222 217 213 210 205 214 221 225 234 248 253 256 233 242 253 286 303 310 307 306 305 305 299 291 280 261 261 293
224 219 221 218 210 209 202 202 206 206 208 203 200 195 203 207 216 212 212 206 204 210 217 226 235 249 249 235 235 247 255 280 305 307 310 310 310 304 297 286 266 246 271 295
226 216 209 212 205 202 200 192 193 199 202 194 188 193 201 204 211 209 208 204 202 203 217 223 228 236 240 232 237 255 268 289 301 308 313 321 311 308 302 285 256 257 300 310
216 205 200 199 198 194 195 187 186 193 196 186 181 195 195 202 208 207 205 204 202 203 212 212 222 232 235 234 244 273 278 296 296 315 323 321 310 313 309 306 281 300 304 284
186 181 184 188 194 192 192 185 179 184 189 183 181 193 195 200 201 201 202 201 198 202 205 195 207 230 244 235 251 276 295 298 301 326 327 322 314 315 301 322 299 273 288 197
154 162 170 178 184 187 183 183 178 180 182 179 186 191 194 196 194 198 198 196 191 199 199 195 212 227 236 228 252 291 305 296 314 333 327 319 308 302 242 152 206 163 40 165
143 153 168 176 175 174 175 179 178 176 176 176 189 188 191 192 192 192 194 191 193 196 202 202 209 222 221 227 258 292 302 296 331 335 330 320 321 317 206 148 155 196 62 160
140 147 160 166 170 168 173 174 177 174 171 177 183 183 185 186 186 186 184 182 184 195 200 215 212 213 210 214 241 275 292 308 344 348 344 337 350 56 144 166 219 192 149 162
141 149 153 159 161 165 169 173 176 169 170 178 177 178 176 179 174 174 165 170 168 191 200 215 227 214 212 216 225 262 269 336 353 1 340 347 356 110 140 157 148 169 152 165
145 149 152 155 161 164 168 168 172 169 175 175 171 169 173 169 168 167 165 164 179 195 189 208 215 203 206 215 212 242 240 5 11 3 358 328 350 147 133 169 192 190 186 182
152 151 152 152 157 161 163 167 171 174 170 170 168 167 168 169 175 174 176 185 179 188 195 204 205 203 205 210 218 221 181 21 19 358 4 350 359 115 111 110 94 134 175 176
154 153 154 153 157 158 159 165 170 171 165 163 166 167 172 173 174 174 173 165 165 182 188 194 197 202 205 205 189 196 151 21 20 360 18 29 317 123 141 132 83 101 140 161
Height
10549 10556 10582 10589 10590 10600 10611 10624 10636 10645 10654 10655 10679 10703 10704 10710 10721 10732 10737 10740 10746 10751 10749 10749 10752 10756 10758 10759 10758 10758 10755 10753 10748 10741 10735 10729 10722 10718 10712 10704 10703 10699 10696 10689
10516 10538 10554 10556 10560 10574 10585 10603 10616 10624 10630 10647 10659 10681 10691 10702 10712 10716 10722 10728 10733 10734 10734 10736 10738 10742 10745 10748 10747 10746 10744 10740 10735 10726 10721 10717 10709 10703 10699 10694 10691 10687 10682 10678
10487 10512 10520 10527 10534 10546 10560 10577 10595 10607 10612 10629 10641 10666 10680 10693 10703 10704 10712 10714 10716 10718 10724 10725 10727 10731 10735 10737 10735 10732 10730 10727 10721 10713 10708 10704 10699 10694 10689 10685 10678 10676 10673 10669
10456 10478 10494 10500 10510 10521 10535 10551 10567 10585 10597 10612 10623 10656 10670 10679 10692 10695 10698 10698 10699 10707 10711 10712 10718 10722 10722 10722 10723 10719 10716 10714 10708 10703 10697 10692 10688 10684 10680 10674 10668 10667 10663 10659
10431 10445 10454 10465 10489 10495 10519 10529 10544 10560 10578 10589 10618 10631 10678 10662 10677 10681 10673 10683 10693 10696 10702 10707 10707 10708 10706 10708 10710 10706 10704 10700 10697 10692 10686 10683 10680 10675 10669 10665 10661 10659 10656 10651
10399 10408 10415 10431 10452 10468 10493 10505 10520 10534 10552 10577 10608 10612 10662 10643 10655 10656 10665 10674 10678 10686 10694 10694 10693 10691 10693 10697 10696 10696 10691 10688 10684 10680 10677 10675 10670 10665 10660 10657 10655 10650 10646 10643
10372 10381 10388 10406 10424 10446 10470 10486 10502 10517 10537 10580 10583 10598 10642 10632 10637 10641 10651 10661 10669 10676 10678 10677 10678 10681 10683 10685 10684 10684 10682 10676 10673 10671 10670 10666 10660 10656 10654 10652 10649 10644 10639 10635
10348 10351 10366 10385 10405 10424 10447 10465 10488 10503 10531 10557 10566 10599 10620 10613 10613 10631 10633 10649 10658 10661 10661 10666 10668 10669 10671 10673 10673 10672 10670 10667 10665 10663 10661 10657 10653 10651 10649 10646 10642 10638 10634 10629
10325 10336 10346 10361 10383 10401 10421 10445 10467 10483 10511 10533 10563 10585 10596 10587 10600 10615 10627 10638 10645 10646 10653 10654 10655 10657 10659 10662 10663 10662 10660 10659 10657 10656 10653 10651 10648 10645 10643 10639 10635 10630 10626 10621
10311 10322 10330 10344 10361 10382 10401 10424 10441 10469 10499 10527 10554 10570 10580 10574 10588 10603 10614 10622 10630 10636 10638 10641 10644 10646 10650 10652 10653 10652 10652 10651 10651 10649 10647 10645 10641 10638 10634 10631 10627 10623 10619 10617
10301 10308 10315 10328 10347 10365 10383 10410 10429 10459 10485 10514 10540 10559 10562 10559 10573 10593 10603 10611 10618 10623 10629 10633 10636 10639 10641 10644 10644 10645 10645 10646 10645 10644 10642 10638 10633 10630 10627 10623 10619 10616 10614 10612
10290 10296 10303 10317 10335 10353 10377 10398 10420 10447 10474 10499 10523 10543 10546 10553 10573 10584 10594 10602 10610 10616 10621 10625 10628 10633 10635 10636 10637 10639 10640 10641 10640 10638 10635 10630 10626 10623 10620 10616 10612 10609 10607 10607
10283 10289 10297 10311 10324 10341 10363 10384 10407 10430 10455 10484 10510 10533 10535 10541 10561 10577 10584 10596 10602 10609 10615 10620 10624 10626 10629 10631 10633 10635 10637 10637 10635 10632 10629 10626 10622 10618 10614 10610 10607 10604 10603 10604
10277 10282 10289 10300 10315 10331 10351 10370 10395 10418 10445 10470 10500 10515 10522 10526 10552 10570 10576 10587 10595 10604 10609 10615 10620 10622 10624 10626 10629 10630 10632 10632 10629 10627 10624 10621 10616 10612 10608 10605 10602 10600 10600 10601
10270 10275 10280 10293 10308 10324 10339 10361 10385 10411 10431 10460 10482 10502 10507 10513 10543 10560 10570 10580 10589 10597 10603 10608 10615 10617 10620 10622 10623 10626 10627 10627 10625 10622 10619 10615 10610 10607 10604 10601 10598 10597 10599 10600
10267 10271 10277 10289 10304 10317 10332 10353 10381 10403 10422 10446 10471 10489 10494 10504 10535 10551 10564 10574 10583 10590 10596 10602 10609 10612 10615 10617 10620 10622 10623 10622 10620 10617 10614 10609 10604 10601 10598 10595 10594 10595 10597 10597
10265 10270 10276 10286 10298 10312 10328 10342 10366 10389 10408 10434 10461 10470 10478 10503 10525 10543 10557 10568 10577 10585 10591 10598 10604 10608 10611 10614 10616 10618 10618 10617 10615 10612 10609 10603 10599 10595 10593 10592 10591 10593 10594 10594
10264 10270 10277 10284 10293 10302 10314 10335 10357 10385 10400 10421 10444 10447 10471 10497 10515 10535 10548 10561 10573 10580 10586 10595 10602 10604 10607 10610 10614 10614 10613 10613 10610 10607 10602 10597 10594 10592 10590 10589 10589 10590 10591 10592
10264 10270 10276 10283 10293 10305 10318 10334 10352 10375 10397 10418 10435 10442 10465 10489 10510 10526 10540 10556 10569 10575 10585 10593 10598 10602 10605 10607 10610 10610 10609 10608 10605 10601 10597 10593 10591 10589 10588 10588 10588 10589 10590 10591
10266 10271 10276 10283 10292 10303 10317 10333 10347 10361 10385 10407 10420 10439 10461 10484 10505 10519 10536 10552 10563 10572 10580 10588 10593 10597 10601 10603 10606 10605 10605 10603 10600 10597 10593 10590 10588 10586 10586 10587 10588 10589 10589 10590
10269 10275 10280 10283 10290 10301 10313 10325 10342 10363 10386 10404 10413 10439 10465 10483 10497 10514 10531 10548 10561 10569 10577 10583 10588 10594 10598 10600 10601 10601 10601 10600 10597 10594 10590 10588 10586 10584 10585 10587 10588 10589 10590 10591
10275 10279 10283 10289 10297 10303 10316 10333 10351 10360 10380 10400 10419 10441 10460 10478 10496 10514 10531 10546 10555 10566 10572 10579 10585 10590 10594 10597 10598 10598 10598 10597 10594 10590 10589 10587 10585 10584 10585 10587 10587 10588 10591 10592
10279 10282 10287 10293 10301 10309 10319 10334 10352 10370 10384 10397 10417 10436 10457 10475 10495 10512 10525 10537 10549 10559 10567 10576 10582 10587 10592 10594 10595 10596 10596 10594 10591 10588 10588 10587 10586 10585 10585 10587 10588 10589 10591 10593
10285 10289 10292 10297 10303 10311 10323 10342 10359 10371 10384 10403 10422 10439 10456 10476 10491 10504 10517 10529 10543 10554 10563 10570 10578 10583 10588 10591 10592 10593 10593 10592 10590 10588 10587 10587 10586 10585 10586 10587 10589 10589 10592 10594
10292 10295 10299 10304 10310 10318 10331 10346 10359 10373 10389 10406 10425 10441 10457 10472 10487 10501 10515 10526 10538 10549 10558 10567 10573 10579 10584 10588 10589 10591 10591 10591 10590 10589 10587 10587 10586 10584 10585 10587 10587 10587 10590 10593
10301 10303 10307 10309 10314 10324 10338 10351 10366 10379 10390 10405 10421 10439 10454 10468 10483 10499 10514 10525 10535 10545 10554 10563 10568 10575 10580 10585 10587 10589 10590 10590 10590 10590 10588 10588 10588 10585 10586 10587 10587 10588 10590 10591